Time_in_sec,gx,gy,gz
1314270743.25015664,0.06354930,-0.00517117,-0.99796530
1314270743.30050302,0.06361625,-0.00505164,-0.99796165
1314270743.35361433,0.06339113,-0.00477090,-0.99797736
1314270743.40075707,0.06356868,-0.00507440,-0.99796457
1314270743.45258141,0.06361061,-0.00514358,-0.99796154
1314270743.50047874,0.06342373,-0.00507089,-0.99797381
1314270743.55006957,0.06351773,-0.00502069,-0.99796808
1314270743.60067844,0.06343287,-0.00491771,-0.99797399
1314270743.65259457,0.06335537,-0.00485845,-0.99797920
1314270743.70207143,0.06326048,-0.00486976,-0.99798517
1314270743.74949670,0.06313112,-0.00493194,-0.99799305
1314270743.80148005,0.06306928,-0.00476576,-0.99799777
1314270743.85254312,0.06328743,-0.00448288,-0.99798527
1314270743.90160465,0.06304942,-0.00441453,-0.99800064
1314270743.94962454,0.06317288,-0.00437382,-0.99799301
1314270744.00050879,0.06318514,-0.00462941,-0.99799109
1314270744.04947352,0.06320669,-0.00469601,-0.99798941
1314270744.10305572,0.06328148,-0.00490260,-0.99798368
1314270744.15353799,0.06330428,-0.00492061,-0.99798214
1314270744.20550966,0.06341736,-0.00484253,-0.99797534
1314270744.25249338,0.06322972,-0.00498141,-0.99798657
1314270744.30059958,0.06325113,-0.00493834,-0.99798542
1314270744.35245275,0.06335716,-0.00505443,-0.99797812
1314270744.40082192,0.06344427,-0.00498486,-0.99797293
1314270744.45258999,0.06351897,-0.00500358,-0.99796809
1314270744.50051093,0.06334710,-0.00523353,-0.99797783
1314270744.54950857,0.06331434,-0.00516315,-0.99798028
1314270744.60050750,0.06327115,-0.00528271,-0.99798239
1314270744.65376544,0.06337505,-0.00515554,-0.99797646
1314270744.70045519,0.06334110,-0.00520675,-0.99797835
1314270744.75248694,0.06355379,-0.00535493,-0.99796405
1314270744.80069327,0.06360255,-0.00543285,-0.99796052
1314270744.85260177,0.06370383,-0.00555567,-0.99795338
1314270744.90165639,0.06388243,-0.00543083,-0.99794265
1314270744.95259953,0.06385566,-0.00551669,-0.99794390
1314270745.00088358,0.06378006,-0.00541195,-0.99794930
1314270745.04963231,0.06369640,-0.00559266,-0.99795365
1314270745.10105586,0.06348606,-0.00561467,-0.99796693
1314270745.14951539,0.06348467,-0.00556038,-0.99796732
1314270745.20121694,0.06331540,-0.00568390,-0.99797738
1314270745.25260139,0.06349625,-0.00571933,-0.99796569
1314270745.30404568,0.06341518,-0.00547694,-0.99797220
1314270745.35261393,0.06318094,-0.00558165,-0.99798648
1314270745.40061641,0.06339774,-0.00546917,-0.99797335
1314270745.44950271,0.06342889,-0.00568646,-0.99797016
1314270745.50047183,0.06359368,-0.00551485,-0.99796064
1314270745.55652213,0.06355940,-0.00569051,-0.99796183
1314270745.60061383,0.06347385,-0.00582672,-0.99796649
1314270745.65260196,0.06346913,-0.00590401,-0.99796634
1314270745.70054173,0.06351628,-0.00600473,-0.99796274
1314270745.75246835,0.06361094,-0.00621558,-0.99795542
1314270745.80097795,0.06353492,-0.00629002,-0.99795979
1314270745.85245442,0.06384014,-0.00618634,-0.99794096
1314270745.90048432,0.06382278,-0.00627290,-0.99794153
1314270745.95024729,0.06393713,-0.00645220,-0.99793307
1314270746.00054789,0.06383233,-0.00631159,-0.99794068
1314270746.04959869,0.06389343,-0.00630637,-0.99793680
1314270746.10341358,0.06386282,-0.00644535,-0.99793787
1314270746.15423298,0.06378737,-0.00654782,-0.99794203
1314270746.20088959,0.06383460,-0.00668044,-0.99793813
1314270746.24968481,0.06386291,-0.00673946,-0.99793592
1314270746.30151725,0.06396213,-0.00657806,-0.99793065
1314270746.35246372,0.06389138,-0.00649999,-0.99793569
1314270746.40048671,0.06380791,-0.00656891,-0.99794058
1314270746.45260024,0.06362075,-0.00686342,-0.99795055
1314270746.50408864,0.06360011,-0.00671949,-0.99795284
1314270746.55360913,0.06375385,-0.00702267,-0.99794094
1314270746.60048103,0.06355257,-0.00702539,-0.99795376
1314270746.65250111,0.06329405,-0.00707529,-0.99796984
1314270746.70049214,0.06339798,-0.00724910,-0.99796200
1314270746.74963999,0.06283864,-0.00730988,-0.99799693
1314270746.80048561,0.06264507,-0.00760350,-0.99800690
1314270746.84947586,0.06262983,-0.00768387,-0.99800725
1314270746.90268707,0.06262337,-0.00778229,-0.99800689
1314270746.95259786,0.06245093,-0.00800624,-0.99801592
1314270747.00054669,0.06234278,-0.00794783,-0.99802315
1314270747.05246854,0.06216086,-0.00808366,-0.99803341
1314270747.10049748,0.06210343,-0.00797368,-0.99803787
1314270747.14950991,0.06214672,-0.00810431,-0.99803412
1314270747.20161176,0.06224419,-0.00827925,-0.99802661
1314270747.25361872,0.06224409,-0.00833780,-0.99802613
1314270747.30450344,0.06228145,-0.00833693,-0.99802381
1314270747.35361314,0.06228669,-0.00825652,-0.99802415
1314270747.40052056,0.06233283,-0.00823026,-0.99802148
1314270747.45249486,0.06243277,-0.00825629,-0.99801502
1314270747.50049591,0.06244268,-0.00838741,-0.99801331
1314270747.54974794,0.06247640,-0.00826148,-0.99801225
1314270747.60050035,0.06253191,-0.00786768,-0.99801195
1314270747.65247154,0.06246878,-0.00804693,-0.99801448
1314270747.70195365,0.06254296,-0.00770479,-0.99801253
1314270747.75285530,0.06245587,-0.00770066,-0.99801802
1314270747.80080867,0.06252621,-0.00743782,-0.99801561
1314270747.85245085,0.06245443,-0.00728203,-0.99802125
1314270747.90060949,0.06209307,-0.00709957,-0.99804511
1314270747.95245314,0.06184826,-0.00697606,-0.99806118
1314270748.00047183,0.06173876,-0.00678686,-0.99806927
1314270748.05261540,0.06190960,-0.00693965,-0.99805763
1314270748.10450888,0.06215220,-0.00695037,-0.99804248
1314270748.15253448,0.06232631,-0.00702639,-0.99803109
1314270748.20078325,0.06217518,-0.00692845,-0.99804120
1314270748.25245953,0.06225836,-0.00703123,-0.99803530
1314270748.30159760,0.06234564,-0.00701431,-0.99802997
1314270748.35257244,0.06235723,-0.00711112,-0.99802856
1314270748.40048504,0.06226250,-0.00722866,-0.99803363
1314270748.45448852,0.06230621,-0.00740601,-0.99802960
1314270748.50242448,0.06223860,-0.00757089,-0.99803258
1314270748.55007219,0.06221631,-0.00740167,-0.99803524
1314270748.60049868,0.06218181,-0.00755734,-0.99803623
1314270748.65247560,0.06210812,-0.00776775,-0.99803920
1314270748.70100141,0.06227369,-0.00789097,-0.99802792
1314270748.74956012,0.06248867,-0.00801951,-0.99801345
1314270748.80048466,0.06234412,-0.00790037,-0.99802344
1314270748.85255861,0.06260699,-0.00793441,-0.99800672
1314270748.90243340,0.06265451,-0.00805953,-0.99800273
1314270748.95355010,0.06268614,-0.00791619,-0.99800189
1314270749.00050831,0.06249411,-0.00771900,-0.99801548
1314270749.04954243,0.06271386,-0.00788891,-0.99800037
1314270749.10139441,0.06288593,-0.00797977,-0.99798882
1314270749.14961410,0.06284318,-0.00777621,-0.99799312
1314270749.20151544,0.06286461,-0.00773760,-0.99799207
1314270749.25415540,0.06281845,-0.00765188,-0.99799564
1314270749.30049109,0.06269219,-0.00779143,-0.99800250
1314270749.35361552,0.06260065,-0.00785128,-0.99800777
1314270749.40049982,0.06280905,-0.00800691,-0.99799344
1314270749.45247149,0.06297825,-0.00779610,-0.99798445
1314270749.50148606,0.06311349,-0.00779470,-0.99797592
1314270749.54985952,0.06320744,-0.00764742,-0.99797111
1314270749.60161090,0.06317377,-0.00777234,-0.99797228
1314270749.65354419,0.06325172,-0.00753403,-0.99796917
1314270749.70179987,0.06320835,-0.00743699,-0.99797264
1314270749.75256777,0.06306479,-0.00737108,-0.99798221
1314270749.80951452,0.06300428,-0.00754227,-0.99798476
1314270749.85246253,0.06313057,-0.00770529,-0.99797553
1314270749.90055084,0.06295193,-0.00772149,-0.99798669
1314270749.95247531,0.06280198,-0.00773936,-0.99799600
1314270750.00077844,0.06278577,-0.00792863,-0.99799553
1314270750.04954219,0.06275099,-0.00801854,-0.99799700
1314270750.10453343,0.06269362,-0.00794954,-0.99800116
1314270750.14950562,0.06256911,-0.00782271,-0.99800998
1314270750.20096040,0.06289633,-0.00803735,-0.99798770
1314270750.25259185,0.06287961,-0.00798772,-0.99798915
1314270750.30059457,0.06298739,-0.00829400,-0.99797986
1314270750.34983039,0.06298090,-0.00831815,-0.99798007
1314270750.40098023,0.06300575,-0.00858977,-0.99797620
1314270750.45350361,0.06293758,-0.00845719,-0.99798163
1314270750.50309396,0.06291522,-0.00820786,-0.99798512
1314270750.55260253,0.06287908,-0.00812464,-0.99798808
1314270750.60051179,0.06293228,-0.00810086,-0.99798492
1314270750.65244246,0.06294577,-0.00801100,-0.99798480
1314270750.70051670,0.06308850,-0.00825423,-0.99797380
1314270750.75245905,0.06321730,-0.00822721,-0.99796587
1314270750.80148935,0.06331736,-0.00802398,-0.99796119
1314270750.85250425,0.06359575,-0.00823352,-0.99794178
1314270750.90319419,0.06363940,-0.00817021,-0.99793951
1314270750.95260692,0.06343506,-0.00824887,-0.99795188
1314270751.00154328,0.06356528,-0.00838946,-0.99794242
1314270751.04958200,0.06330333,-0.00848608,-0.99795825
1314270751.10161424,0.06331953,-0.00816337,-0.99795992
1314270751.15356135,0.06326511,-0.00823969,-0.99796274
1314270751.20148849,0.06329746,-0.00832840,-0.99795995
1314270751.25246835,0.06323973,-0.00853254,-0.99796189
1314270751.30160809,0.06337999,-0.00892108,-0.99794959
1314270751.34945750,0.06350194,-0.00883658,-0.99794259
1314270751.40146708,0.06343135,-0.00868646,-0.99794840
1314270751.45348740,0.06359858,-0.00867232,-0.99793788
1314270751.50145483,0.06349880,-0.00890663,-0.99794217
1314270751.54957390,0.06348530,-0.00907933,-0.99794147
1314270751.60247231,0.06339874,-0.00889088,-0.99794867
1314270751.65250158,0.06336905,-0.00900161,-0.99794957
1314270751.70169210,0.06316742,-0.00872369,-0.99796482
1314270751.74942732,0.06317774,-0.00865925,-0.99796472
1314270751.80057168,0.06320910,-0.00890593,-0.99796057
1314270751.84944224,0.06312353,-0.00884526,-0.99796652
1314270751.90172052,0.06292698,-0.00904822,-0.99797712
1314270751.94950747,0.06309561,-0.00899362,-0.99796696
1314270752.00047612,0.06319426,-0.00908239,-0.99795992
1314270752.04939795,0.06312419,-0.00901075,-0.99796500
1314270752.10449767,0.06310123,-0.00877013,-0.99796860
1314270752.14952254,0.06301913,-0.00884071,-0.99797316
1314270752.20162964,0.06309051,-0.00888504,-0.99796826
1314270752.24949503,0.06291302,-0.00897710,-0.99797864
1314270752.30114698,0.06292131,-0.00894627,-0.99797839
1314270752.35248542,0.06317018,-0.00910064,-0.99796127
1314270752.40149498,0.06319746,-0.00917396,-0.99795888
1314270752.44949770,0.06297618,-0.00923956,-0.99797226
1314270752.50448871,0.06286422,-0.00959464,-0.99797597
1314270752.55247688,0.06274705,-0.00965200,-0.99798279
1314270752.60052562,0.06257456,-0.00975732,-0.99799259
1314270752.65245819,0.06274599,-0.00970587,-0.99798233
1314270752.70149279,0.06293520,-0.00952267,-0.99797218
1314270752.75249720,0.06273486,-0.00956108,-0.99798443
1314270752.80049062,0.06262510,-0.00954007,-0.99799153
1314270752.85362458,0.06278059,-0.00949242,-0.99798221
1314270752.90459490,0.06289694,-0.00956213,-0.99797422
1314270752.95349073,0.06283468,-0.00958609,-0.99797791
1314270753.00048566,0.06307212,-0.00947296,-0.99796401
1314270753.05349803,0.06310669,-0.00933359,-0.99796314
1314270753.10049486,0.06311272,-0.00945563,-0.99796161
1314270753.14961648,0.06305210,-0.00958692,-0.99796419
1314270753.20060539,0.06287014,-0.00965455,-0.99797502
1314270753.24920321,0.06276793,-0.00965698,-0.99798143
1314270753.30288696,0.06276584,-0.00964193,-0.99798170
1314270753.34964871,0.06269428,-0.00979248,-0.99798474
1314270753.40048265,0.06277053,-0.00961010,-0.99798172
1314270753.44048333,0.06273292,-0.00958684,-0.99798430
1314270753.50046730,0.06297762,-0.00976576,-0.99796716
1314270753.54952264,0.06286855,-0.00991983,-0.99797252
1314270753.60050869,0.06299929,-0.01024148,-0.99796102
1314270753.65251589,0.06321759,-0.01020580,-0.99794758
1314270753.70448852,0.06341808,-0.01059322,-0.99793082
1314270753.75247860,0.06337136,-0.01088026,-0.99793070
1314270753.80048609,0.06359569,-0.01081851,-0.99791710
1314270753.85252786,0.06351969,-0.01100858,-0.99791987
1314270753.90049028,0.06345919,-0.01097448,-0.99792409
1314270753.94959974,0.06348527,-0.01109764,-0.99792107
1314270754.00160909,0.06342681,-0.01105828,-0.99792522
1314270754.05248046,0.06339461,-0.01118349,-0.99792588
1314270754.10348082,0.06342639,-0.01126995,-0.99792288
1314270754.15261865,0.06350010,-0.01128806,-0.99791799
1314270754.20047808,0.06349020,-0.01147806,-0.99791645
1314270754.25349522,0.06359381,-0.01159302,-0.99790853
1314270754.30046105,0.06363875,-0.01165390,-0.99790495
1314270754.35345364,0.06338678,-0.01186483,-0.99791850
1314270754.40050364,0.06362651,-0.01179250,-0.99790411
1314270754.45264864,0.06366024,-0.01201686,-0.99789928
1314270754.50440717,0.06376432,-0.01195100,-0.99789342
1314270754.55251217,0.06394017,-0.01208776,-0.99788052
1314270754.60152149,0.06387343,-0.01208350,-0.99788485
1314270754.65243602,0.06377753,-0.01211375,-0.99789062
1314270754.70049882,0.06369549,-0.01241202,-0.99789219
1314270754.75248003,0.06376891,-0.01267926,-0.99788414
1314270754.80070591,0.06391199,-0.01261558,-0.99787580
1314270754.84934139,0.06385591,-0.01262349,-0.99787929
1314270754.90051174,0.06385935,-0.01254980,-0.99788000
1314270754.95250201,0.06388484,-0.01276874,-0.99787559
1314270755.00085974,0.06378870,-0.01260227,-0.99788385
1314270755.05246496,0.06392617,-0.01261272,-0.99787492
1314270755.10152745,0.06396225,-0.01259841,-0.99787279
1314270755.14955592,0.06410483,-0.01277519,-0.99786140
1314270755.20160007,0.06385846,-0.01281200,-0.99787672
1314270755.25356865,0.06363712,-0.01253468,-0.99789438
1314270755.30410385,0.06357595,-0.01281664,-0.99789470
1314270755.35251975,0.06358410,-0.01278246,-0.99789462
1314270755.40068126,0.06352254,-0.01285095,-0.99789766
1314270755.45243907,0.06359819,-0.01284458,-0.99789292
1314270755.50147653,0.06357117,-0.01290440,-0.99789387
1314270755.55245090,0.06338382,-0.01312902,-0.99790286
1314270755.60216975,0.06291994,-0.01292816,-0.99793484
1314270755.64922404,0.06307937,-0.01305072,-0.99792318
1314270755.70446658,0.06324032,-0.01312886,-0.99791197
1314270755.75008130,0.06310036,-0.01318454,-0.99792009
1314270755.80092025,0.06304078,-0.01345565,-0.99792024
1314270755.85246587,0.06289771,-0.01361391,-0.99792712
1314270755.90110612,0.06250408,-0.01356188,-0.99795256
1314270755.94988585,0.06240419,-0.01357482,-0.99795864
1314270756.00055170,0.06235631,-0.01351863,-0.99796239
1314270756.05361009,0.06233127,-0.01360058,-0.99796284
1314270756.10157204,0.06206299,-0.01355561,-0.99798018
1314270756.14952207,0.06214452,-0.01384412,-0.99797114
1314270756.20090580,0.06226859,-0.01401015,-0.99796109
1314270756.25249314,0.06256089,-0.01409272,-0.99794165
1314270756.30049562,0.06255809,-0.01425938,-0.99793945
1314270756.35242724,0.06253380,-0.01439845,-0.99793898
1314270756.40048814,0.06259184,-0.01454377,-0.99793323
1314270756.45345354,0.06246721,-0.01449748,-0.99794172
1314270756.50448060,0.06238532,-0.01455472,-0.99794601
1314270756.55346775,0.06248024,-0.01444958,-0.99794160
1314270756.60150695,0.06272382,-0.01427338,-0.99792885
1314270756.65246844,0.06278054,-0.01449825,-0.99792204
1314270756.70147705,0.06249213,-0.01438759,-0.99794175
1314270756.75246644,0.06258479,-0.01431520,-0.99793698
1314270756.80163932,0.06250529,-0.01420352,-0.99794356
1314270756.85346293,0.06233998,-0.01438373,-0.99795132
1314270756.90162301,0.06269123,-0.01455215,-0.99792687
1314270756.95248127,0.06254361,-0.01445784,-0.99793751
1314270757.00642991,0.06240710,-0.01477907,-0.99794135
1314270757.04055786,0.06217986,-0.01483672,-0.99795468
1314270757.10057807,0.06229917,-0.01492164,-0.99794597
1314270757.14947176,0.06251810,-0.01509962,-0.99792960
1314270757.20049286,0.06256596,-0.01503173,-0.99792763
1314270757.25359678,0.06274472,-0.01524193,-0.99791321
1314270757.30189514,0.06282300,-0.01513393,-0.99790993
1314270757.35249400,0.06275053,-0.01525065,-0.99791272
1314270757.40063381,0.06298000,-0.01521366,-0.99789882
1314270757.45248175,0.06301081,-0.01515302,-0.99789780
1314270757.50069380,0.06314425,-0.01513731,-0.99788961
1314270757.54978752,0.06307034,-0.01514397,-0.99789418
1314270757.60049987,0.06308531,-0.01521758,-0.99789211
1314270757.65348101,0.06337168,-0.01502355,-0.99787691
1314270757.70452785,0.06343512,-0.01516209,-0.99787078
1314270757.75246334,0.06302176,-0.01516952,-0.99789686
1314270757.80050635,0.06306481,-0.01538730,-0.99789081
1314270757.85434484,0.06305248,-0.01565653,-0.99788740
1314270757.90058208,0.06312021,-0.01567819,-0.99788278
1314270757.94984031,0.06322444,-0.01559876,-0.99787742
1314270758.00048685,0.06320802,-0.01566316,-0.99787745
1314270758.05361319,0.06317795,-0.01572450,-0.99787839
1314270758.10156035,0.06317406,-0.01583106,-0.99787695
1314270758.15360165,0.06311264,-0.01576667,-0.99788186
1314270758.20086408,0.06296073,-0.01585678,-0.99789003
1314270758.25244737,0.06279874,-0.01561302,-0.99790408
1314270758.30161476,0.06260229,-0.01550342,-0.99791813
1314270758.35246515,0.06260379,-0.01590611,-0.99791170
1314270758.40047598,0.06261601,-0.01606356,-0.99790841
1314270758.44918752,0.06235640,-0.01619682,-0.99792251
1314270758.50448060,0.06223407,-0.01627003,-0.99792896
1314270758.54914403,0.06225452,-0.01634010,-0.99792654
1314270758.60058045,0.06220673,-0.01630730,-0.99793006
1314270758.65247774,0.06244388,-0.01623878,-0.99791636
1314270758.70161247,0.06238282,-0.01642879,-0.99791707
1314270758.75250363,0.06214900,-0.01642510,-0.99793172
1314270758.80160546,0.06210478,-0.01638345,-0.99793516
1314270758.85247588,0.06198838,-0.01656817,-0.99793934
1314270758.90056467,0.06202942,-0.01660436,-0.99793619
1314270758.94950795,0.06194377,-0.01680140,-0.99793822
1314270759.00153852,0.06185292,-0.01674185,-0.99794485
1314270759.05349612,0.06161965,-0.01672244,-0.99795961
1314270759.10059810,0.06161118,-0.01643640,-0.99796488
1314270759.14992118,0.06155031,-0.01667218,-0.99796473
1314270759.20158815,0.06160185,-0.01687719,-0.99795810
1314270759.24959302,0.06146137,-0.01673469,-0.99796916
1314270759.30048037,0.06112040,-0.01674034,-0.99799001
1314270759.35246277,0.06111699,-0.01678899,-0.99798940
1314270759.40053129,0.06112170,-0.01681967,-0.99798860
1314270759.45246649,0.06131430,-0.01683839,-0.99797647
1314270759.50087404,0.06118757,-0.01684069,-0.99798420
1314270759.54977989,0.06099764,-0.01709457,-0.99799151
1314270759.60054111,0.06096353,-0.01716750,-0.99799235
1314270759.64965129,0.06100819,-0.01733600,-0.99798671
1314270759.70457506,0.06116182,-0.01727822,-0.99797830
1314270759.74969769,0.06119387,-0.01725709,-0.99797670
1314270759.80047798,0.06102209,-0.01719609,-0.99798828
1314270759.84167409,0.06101311,-0.01716056,-0.99798944
1314270759.90055227,0.06100366,-0.01706503,-0.99799165
1314270759.94963002,0.06090753,-0.01691086,-0.99800015
1314270760.00163960,0.06095789,-0.01681049,-0.99799877
1314270760.05246305,0.06129994,-0.01707561,-0.99797332
1314270760.10363770,0.06110366,-0.01696104,-0.99798731
1314270760.14959693,0.06113826,-0.01702753,-0.99798406
1314270760.20162606,0.06123018,-0.01704061,-0.99797820
1314270760.25251651,0.06115602,-0.01681082,-0.99798664
1314270760.30048013,0.06092099,-0.01686764,-0.99800006
1314270760.35246968,0.06061556,-0.01677990,-0.99802013
1314270760.39248753,0.06064308,-0.01696534,-0.99801533
1314270760.45361018,0.06044521,-0.01690267,-0.99802839
1314270760.50214934,0.06057371,-0.01715265,-0.99801634
1314270760.54953361,0.06052492,-0.01731416,-0.99801651
1314270760.60152531,0.06044706,-0.01726346,-0.99802211
1314270760.65246320,0.06032599,-0.01759913,-0.99802357
1314270760.70050669,0.06023763,-0.01755546,-0.99802968
1314270760.75243545,0.06030236,-0.01736521,-0.99802910
1314270760.80152655,0.06030645,-0.01731958,-0.99802964
1314270760.84952450,0.06048379,-0.01745928,-0.99801648
1314270760.90225029,0.06048922,-0.01743833,-0.99801651
1314270760.94960427,0.06049557,-0.01728108,-0.99801886
1314270761.00163484,0.06062776,-0.01739970,-0.99800878
1314270761.05348969,0.06067800,-0.01728756,-0.99800768
1314270761.10081553,0.06078079,-0.01750813,-0.99799758
1314270761.15246725,0.06074286,-0.01753484,-0.99799942
1314270761.20083666,0.06090961,-0.01740696,-0.99799149
